Regional Weather Roundup
Issued by NWS

Home | Current Version | Previous Version | Text Only | Print | Product List | Glossary On
Versions: 1 2 3 4 5 6 7 8 9 10 11 12 13 14 15 16 17 18 19 20 21 22 23 24 25 26 27 28 29 30 31 32 33 34 35 36 37 38 39 40 41 42 43 44 45 46 47 48 49 50
000
ASUS43 KMKX 011100
RWRWI

WISCONSIN REGIONAL WEATHER ROUNDUP
NATIONAL WEATHER SERVICE MILWAUKEE/SULLIVAN WI
600 AM CDT MON SEP 01 2014

NOTE: "FAIR" INDICATES FEW OR NO CLOUDS BELOW 12,000 FEET WITH NO
SIGNIFICANT WEATHER AND/OR OBSTRUCTIONS TO VISIBILITY.

WIZ001-002-006>008-014>016-023>028-011200-
NORTHWEST WISCONSIN

CITY           SKY/WX    TMP DP  RH WIND       PRES   REMARKS
SUPERIOR ARPT  RAIN      64  64  99 S6        29.58R
ASHLAND        LGT RAIN  65  63  93 SW8       29.59R
HAYWARD        LGT RAIN  65  64  97 SW10G21   29.63R
SIREN          RAIN      65  64  95 W10       29.63S
RICE LAKE      RAIN      64  62  93 S7        29.65F
LADYSMITH      LGT RAIN  65  64  94 SW7       29.67F
EAU CLAIRE     LGT RAIN  65  64  97 W5        29.64F
MENOMONIE      LGT RAIN  64  64  98 SW6       29.65F
NEW RICHMOND   RAIN      64  64  99 SW6       29.64S
OSCEOLA        LGT RAIN  65  65 100 SW8       29.66S
$$

WIZ003>005-009-010-017-018-011200-
NORTH CENTRAL WISCONSIN

CITY           SKY/WX    TMP DP  RH WIND       PRES   REMARKS
WOODRUFF       RAIN      65  62  90 W10G21    29.66
RHINELANDER    LGT RAIN  63  60  90 SW8       29.68F
EAGLE RIVER    LGT RAIN  64  63  94 SW7       29.67S
LAND O LAKES   DRIZZLE   65  62  89 SW10G17   29.66S
PHILLIPS       RAIN      64  63  97 SW8       29.66F
TOMAHAWK       LGT RAIN  63  60  91 CALM      29.70S
MEDFORD        CLOUDY    61  60  96 CALM      29.66F
MERRILL        LGT RAIN  64  61  91 S3        29.68F
$$

WIZ029-030-035-036-043>047-011200-
CENTRAL WISCONSIN

CITY           SKY/WX    TMP DP  RH WIND       PRES   REMARKS
WAUSAU         CLOUDY    67  60  78 CALM      29.64F
MOSINEE        DRIZZLE   64  61  88 S3        29.67F
MARSHFIELD     CLOUDY    63  61  93 SE5       29.65F
STEVENS POINT  LGT RAIN  66  58  75 SW7       29.68F
WAUPACA        CLOUDY    71  62  72 SE7       29.69F
WAUTOMA        NOT AVBL
WISC RAPIDS    CLOUDY    67  59  75 S6        29.67F
CAMP DOUGLAS   NOT AVBL
$$

WIZ011>013-019>022-031-037>040-048>050-011200-
NORTHEAST WISCONSIN

CITY           SKY/WX    TMP DP  RH WIND       PRES   REMARKS
ANTIGO         CLOUDY    64  61  90 SW7       29.70S
STURGEON BAY   CLOUDY    68  64  88 S12G17    29.72F
GREEN BAY      PTCLDY    70  68  93 S8        29.70S
MANITOWOC      FOG       66  66 100 S10       29.74S VSB 1
APPLETON       MOCLDY    70  70 100 S10       29.72S
CLINTONVILLE   MOCLDY    70  66  88 S8        29.68S
OSHKOSH        CLOUDY    70  68  93 S9        29.70F
$$

WIZ032>034-041-042-053>061-011200-
SOUTHWEST WISCONSIN

CITY           SKY/WX    TMP DP  RH WIND       PRES   REMARKS
LA CROSSE      CLOUDY    66  62  87 S7        29.64R
SPARTA         CLOUDY    68  58  70 S9        29.66F
VIROQUA        PTSUNNY   64  64 100 SW7       29.66F
BOSCOBEL       CLOUDY    67  62  84 SW6       29.67R
PRAIRIE DU CHI CLOUDY    66  62  86 S5        29.67R
PLATTEVILLE    MOCLDY    65  63  93 SE12      29.67F
$$

WIZ056-057-062-063-064-067-068-011200-
SOUTH CENTRAL WISCONSIN

CITY           SKY/WX    TMP DP  RH WIND       PRES   REMARKS
BARABOO/DELLS  NOT AVBL
LONE ROCK      NOT AVBL
WATERTOWN      CLOUDY    69  69 100 CALM      29.74F
MADISON        CLOUDY    70  60  70 SE8       29.67F
MIDDLETON      PTSUNNY   70  60  72 S7        29.69F
MONROE         CLOUDY    64  61  88 E6        29.68F
JANESVILLE     CLEAR     70  63  78 SE6       29.73F VSB 1
$$

WIZ051-052-058>065-066-070>072-011200-
SOUTHEAST WISCONSIN

CITY           SKY/WX    TMP DP  RH WIND       PRES   REMARKS
MILWAUKEE      MOCLDY    71  68  90 SW8       29.77S
WAUKESHA       PTCLDY    70  66  88 S7        29.78F
MILWAUKEE/TIMM PTCLDY    70  66  88 SW9       29.77F
RACINE         PTCLDY    71  69  93 SW9       29.78F
BURLINGTON     CLOUDY    69  68  97 S5        29.77F
KENOSHA        MOCLDY    72  70  93 S9        29.77F
FOND DU LAC    CLOUDY    70  66  87 S12       29.71F
SHEBOYGAN      PTCLDY    68  66  93 S6        29.74F FOG
WEST BEND      CLOUDY    70  66  88 SW7       29.76F
JUNEAU         CLOUDY    69  68  97 S8        29.75F FOG
$$

LSZ147-162-011200-
LAKE SUPERIOR

STATION/POSITION TIME  TEMP    WIND        PRES    WAVE
                       AIR SEA DIR/SP/G            HT/PER
                 (UTC) (F)     (DEG/KT/KT) (MB)    (FT/S)
W MID LAKE BUOY  0950   62 58  190/  8/ 10  999.8F   2/ 4
DEVILS ISLAND    1000   63     230/ 10/ 12 1000.0R
PORT WING        1040   65     220/  7/ 10 1001.7R
SAXON HARBOR     1000   66     180/  1/  4 1001.7S
$$

LMZ867-665-643>646-011200-
LAKE MICHIGAN

STATION/POSITION TIME  TEMP    WIND        PRES    WAVE
                       AIR SEA DIR/SP/G            HT/PER
                 (UTC) (F)     (DEG/KT/KT) (MB)    (FT/S)
N MID LAKE BUOY  0950   68 65  180/ 17/ 19 1006.4F   2/ 3
NORTHPORT PIER   1000   68     160/  7/ 14 1006.1F
KEWAUNEE LAKESHO 1000   61     180/ 10/ 12 1006.1F
SHEBOYGAN LAKESH 1000   69 53  180/ 19/ 20 1007.2F
ATWATER BUOY     1000   70     160/ 10/ 10 1009.2F
MILWAUKEE LAKESH 1000   72     190/  7/ 10   N/A
S MID LAKE BUOY  0950   72 70  180/ 16/ 17 1009.1F   3/ 4
KENOSHA   LAKESH 1000   70     180/  8/ 10 1008.5
$$

TC  - TEMPERATURE IN CELSIUS
VSB - VISIBILITY IN STATUTE MILES
WCI - WIND CHILL INDEX
HX  - HEAT INDEX




USA.gov is the U.S. government's official web portal to all federal, state and local government web resources and services.